Change the Weather History Date:

Sunday, March 24, 2013

  Actual Average Record
Temperature  
Mean Temperature 65 °F 59 °F  
Max Temperature 79 °F 71 °F 92 °F (1988)
Min Temperature 51 °F 47 °F 38 °F (1985)
Degree Days  
Heating Degree Days 0 7  
Month to date heating degree days 64 175  
Since 1 July heating degree days 1075 1316  
Cooling Degree Days 0 0  
Month to date cooling degree days 38 0  
Year to date cooling degree days 40 6  
Growing Degree Days 14 (Base 50)    
Moisture  
Dew Point 46 °F    
Average Humidity 54    
Maximum Humidity 83    
Minimum Humidity 25    
Precipitation  
Precipitation 0.00 in 0.08 in 1.22 in (1948)
Month to date precipitation 0.01 2.52  
Year to date precipitation 0.94 10.53  
Since 1 July precipitation 3.74 15.29  
Sea Level Pressure  
Sea Level Pressure 29.93 in    
Wind  
Wind Speed 4 mph (SE)    
Max Wind Speed 12 mph    
Max Gust Speed 16 mph    
Visibility 8 miles    
Events      
T = Trace of Precipitation, MM = Missing Value Source: NWS Daily Summary

Daily Weather History Graph

Daily Weather History Graph

Search for Another Location

Airport or City:

Trip Planner

Search our weather history database for the weather conditions in past years. The results will help you decide how hot, cold, wet, or windy it might be!

Date:

Astronomy

Mar. 24, 2013 Rise Set
Actual Time 6:51 AM PDT 7:08 PM PDT
Civil Twilight 6:26 AM PDT 7:33 PM PDT
Nautical Twilight 5:56 AM PDT 8:02 PM PDT
Astronomical Twilight 5:27 AM PDT 8:32 PM PDT
Moon 4:46 PM PDT (3/24) 4:57 AM PDT (3/24)
Length of Visible Light 13h 07m
Length of Day
12h 17m
Waxing Gibbous, 92% of the Moon is Illuminated
Mar 24
Waxing Gibbous
Mar 27
Full
Apr 2
Last Quarter
Apr 10
New
Apr 18
First Quarter

Hourly Weather History & Observations

Time (PDT) Temp. Dew Point Humidity Pressure Visibility Wind Dir Wind Speed Gust Speed Precip Events Conditions
12:53 AM 57.9 °F 51.1 °F 78% 29.97 in 7.0 mi ESE 6.9 mph - N/A   Clear
1:53 AM 57.0 °F 50.0 °F 77% 29.96 in 6.0 mi East 4.6 mph - N/A   Haze
2:53 AM 57.0 °F 50.0 °F 77% 29.96 in 6.0 mi Calm Calm - N/A   Haze
3:24 AM 55.4 °F 50.0 °F 82% 29.98 in 6.0 mi Calm Calm - N/A   Haze
3:53 AM 55.9 °F 50.0 °F 80% 29.95 in 5.0 mi Calm Calm - N/A   Haze
4:53 AM 54.0 °F 43.0 °F 66% 29.96 in 6.0 mi North 3.5 mph - N/A   Haze
5:53 AM 52.0 °F 42.1 °F 69% 29.96 in 7.0 mi NW 5.8 mph - N/A   Clear
6:12 AM 51.8 °F 44.6 °F 76% 29.99 in 7.0 mi WNW 4.6 mph - N/A   Scattered Clouds
6:20 AM 51.8 °F 46.4 °F 82% 29.99 in 5.0 mi WNW 3.5 mph - N/A   Haze
6:53 AM 52.0 °F 41.0 °F 66% 29.97 in 7.0 mi WNW 3.5 mph - N/A   Scattered Clouds
7:53 AM 53.1 °F 37.9 °F 57% 29.98 in 7.0 mi North 3.5 mph - N/A   Clear
8:53 AM 57.9 °F 46.9 °F 67% 29.99 in 5.0 mi NNW 3.5 mph - N/A   Haze
9:53 AM 63.0 °F 46.9 °F 56% 29.99 in 6.0 mi Calm Calm - N/A   Haze
10:53 AM 66.9 °F 46.0 °F 47% 29.97 in 9.0 mi Calm Calm - N/A   Clear
11:53 AM 73.9 °F 42.1 °F 32% 29.95 in 10.0 mi Variable 6.9 mph - N/A   Clear
12:53 PM 75.9 °F 39.0 °F 26% 29.93 in 10.0 mi Variable 5.8 mph - N/A   Clear
1:53 PM 77.0 °F 39.9 °F 26% 29.91 in 10.0 mi Variable 4.6 mph - N/A   Clear
2:53 PM 78.1 °F 41.0 °F 27% 29.88 in 10.0 mi Variable 6.9 mph - N/A   Clear
3:53 PM 78.1 °F 39.9 °F 25% 29.87 in 10.0 mi South 8.1 mph - N/A   Clear
4:53 PM 77.0 °F 43.0 °F 30% 29.86 in 10.0 mi South 8.1 mph - N/A   Clear
5:53 PM 75.0 °F 44.1 °F 33% 29.85 in 10.0 mi South 8.1 mph - N/A   Clear
6:53 PM 71.1 °F 48.0 °F 44% 29.87 in 10.0 mi South 4.6 mph - N/A   Clear
7:53 PM 68.0 °F 50.0 °F 52% 29.87 in 10.0 mi SE 5.8 mph - N/A   Clear
8:53 PM 66.0 °F 50.0 °F 56% 29.88 in 10.0 mi SSE 4.6 mph - N/A   Clear
9:53 PM 64.0 °F 51.1 °F 63% 29.90 in 10.0 mi East 3.5 mph - N/A   Clear
10:53 PM 63.0 °F 51.1 °F 65% 29.91 in 10.0 mi ESE 4.6 mph - N/A   Clear
11:53 PM 61.0 °F 51.1 °F 70% 29.91 in 9.0 mi East 6.9 mph - N/A   Clear